Time,TemperatureF,DewpointF,PressureIn,WindDirection,WindDirectionDegrees,WindSpeedMPH,WindSpeedGustMPH,Humidity,HourlyPrecipIn,Conditions,Clouds,dailyrainin,SolarRadiationWatts/m^2,SoftwareType,DateUTC
2013-08-20 00:04:00,66.6,62.9,29.89,SSW,206,6.9,6.9,88,0.00,CLR,FEW,0.00,0.0,WeatherDisplay:10.37,2013-08-20 05:04:00,
2013-08-20 00:09:00,66.4,62.7,29.89,SSW,206,6.9,6.9,88,0.00,CLR,FEW,0.00,0.0,WeatherDisplay:10.37,2013-08-20 05:09:00,
2013-08-20 00:14:00,66.4,63.1,29.89,SSW,206,7.0,7.0,89,0.00,CLR,FEW,0.00,0.0,WeatherDisplay:10.37,2013-08-20 05:14:00,
2013-08-20 00:19:00,66.4,63.1,29.89,SSW,204,6.0,6.0,89,0.00,CLR,FEW,0.00,0.0,WeatherDisplay:10.37,2013-08-20 05:19:00,
2013-08-20 00:24:00,66.3,62.6,29.89,SSW,209,8.1,8.1,88,0.00,CLR,FEW,0.00,0.0,WeatherDisplay:10.37,2013-08-20 05:24:00,
2013-08-20 00:29:00,66.1,62.8,29.89,SSW,203,8.1,8.1,89,0.00,CLR,FEW,0.00,0.0,WeatherDisplay:10.37,2013-08-20 05:29:00,
2013-08-20 00:34:00,66.1,62.8,29.89,SSW,209,5.0,6.0,89,0.00,CLR,FEW,0.00,0.0,WeatherDisplay:10.37,2013-08-20 05:34:00,
2013-08-20 00:39:00,66.1,62.8,29.89,SSW,211,5.0,7.0,89,0.00,CLR,FEW,0.00,0.0,WeatherDisplay:10.37,2013-08-20 05:39:00,
2013-08-20 00:44:00,66.0,62.7,29.88,SSW,204,5.0,7.0,89,0.00,CLR,FEW,0.00,0.0,WeatherDisplay:10.37,2013-08-20 05:44:00,
2013-08-20 00:49:00,66.0,63.0,29.89,SSW,200,5.0,8.0,90,0.00,CLR,FEW,0.00,0.0,WeatherDisplay:10.37,2013-08-20 05:49:00,
2013-08-20 00:55:00,66.0,63.0,29.89,SSW,198,5.8,5.8,90,0.00,CLR,FEW,0.00,0.0,WeatherDisplay:10.37,2013-08-20 05:55:00,
2013-08-20 01:00:00,65.8,62.8,29.89,SSW,198,5.8,5.8,90,0.00,CLR,FEW,0.00,0.0,WeatherDisplay:10.37,2013-08-20 06:00:00,
2013-08-20 01:05:00,65.8,62.8,29.88,SSW,198,6.0,6.0,90,0.00,CLR,FEW,0.00,0.0,WeatherDisplay:10.37,2013-08-20 06:05:00,
2013-08-20 01:10:00,65.8,62.8,29.89,SSW,198,5.0,5.0,90,0.00,CLR,FEW,0.00,0.0,WeatherDisplay:10.37,2013-08-20 06:10:00,
2013-08-20 01:15:00,65.8,62.1,29.89,SSW,198,5.8,5.8,88,0.00,CLR,FEW,0.00,0.0,WeatherDisplay:10.37,2013-08-20 06:15:00,
2013-08-20 01:20:00,65.6,62.9,29.89,SSW,198,6.0,6.0,91,0.00,CLR,FEW,0.00,0.0,WeatherDisplay:10.37,2013-08-20 06:20:00,
2013-08-20 01:25:00,65.6,62.9,29.89,SSW,198,4.6,4.6,91,0.00,CLR,FEW,0.00,0.0,WeatherDisplay:10.37,2013-08-20 06:25:00,
2013-08-20 01:30:00,65.6,62.9,29.89,SSW,198,5.0,5.0,91,0.00,CLR,FEW,0.00,0.0,WeatherDisplay:10.37,2013-08-20 06:30:00,
2013-08-20 01:36:00,65.6,62.9,29.89,SSW,198,5.8,5.8,91,0.00,CLR,FEW,0.00,0.0,WeatherDisplay:10.37,2013-08-20 06:36:00,
2013-08-20 01:41:00,65.5,62.8,29.89,SSW,198,5.8,5.8,91,0.00,CLR,FEW,0.00,0.0,WeatherDisplay:10.37,2013-08-20 06:41:00,
2013-08-20 01:46:00,65.5,62.8,29.88,SSW,198,5.8,5.8,91,0.00,CLR,FEW,0.00,0.0,WeatherDisplay:10.37,2013-08-20 06:46:00,
2013-08-20 01:51:00,65.3,62.6,29.88,SSW,198,5.8,5.8,91,0.00,CLR,FEW,0.00,0.0,WeatherDisplay:10.37,2013-08-20 06:51:00,
2013-08-20 01:56:00,65.3,62.6,29.88,SSW,197,5.8,5.8,91,0.00,CLR,FEW,0.00,0.0,WeatherDisplay:10.37,2013-08-20 06:56:00,
2013-08-20 02:01:00,65.3,62.6,29.88,SSW,198,5.0,5.0,91,0.00,CLR,FEW,0.00,0.0,WeatherDisplay:10.37,2013-08-20 07:01:00,
2013-08-20 02:06:00,65.2,62.5,29.88,SSW,196,5.8,5.8,91,0.00,CLR,FEW,0.00,0.0,WeatherDisplay:10.37,2013-08-20 07:06:00,
2013-08-20 02:12:00,65.2,62.5,29.88,SSW,196,6.0,6.0,91,0.00,CLR,FEW,0.00,0.0,WeatherDisplay:10.37,2013-08-20 07:12:00,
2013-08-20 02:17:00,65.2,62.8,29.88,South,188,6.0,6.0,92,0.00,CLR,FEW,0.00,0.0,WeatherDisplay:10.37,2013-08-20 07:17:00,
2013-08-20 02:22:00,65.2,62.8,29.88,SSW,205,5.8,5.8,92,0.00,CLR,FEW,0.00,0.0,WeatherDisplay:10.37,2013-08-20 07:22:00,
2013-08-20 02:27:00,65.2,62.8,29.88,SSW,203,5.8,5.8,92,0.00,CLR,FEW,0.00,0.0,WeatherDisplay:10.37,2013-08-20 07:27:00,
2013-08-20 02:32:00,65.0,62.6,29.88,SSW,207,5.8,5.8,92,0.00,CLR,FEW,0.00,0.0,WeatherDisplay:10.37,2013-08-20 07:32:00,
2013-08-20 02:37:00,65.0,62.6,29.88,SSW,206,5.8,5.8,92,0.00,CLR,FEW,0.00,0.0,WeatherDisplay:10.37,2013-08-20 07:37:00,
2013-08-20 02:42:00,65.0,62.6,29.87,SSW,206,4.6,4.6,92,0.00,CLR,FEW,0.00,0.0,WeatherDisplay:10.37,2013-08-20 07:42:00,
2013-08-20 02:47:00,65.0,62.6,29.88,SSW,206,4.0,4.0,92,0.00,CLR,FEW,0.00,0.0,WeatherDisplay:10.37,2013-08-20 07:47:00,
2013-08-20 02:53:00,64.8,62.4,29.88,SSW,206,6.0,6.0,92,0.00,CLR,FEW,0.00,0.0,WeatherDisplay:10.37,2013-08-20 07:53:00,
2013-08-20 02:58:00,64.8,62.4,29.88,SSW,206,5.0,5.0,92,0.00,CLR,FEW,0.00,0.0,WeatherDisplay:10.37,2013-08-20 07:58:00,
2013-08-20 03:03:00,64.8,62.4,29.88,SSW,206,4.0,4.0,92,0.00,CLR,FEW,0.00,0.0,WeatherDisplay:10.37,2013-08-20 08:03:00,
2013-08-20 03:08:00,64.8,62.4,29.88,SSW,202,5.0,5.0,92,0.00,CLR,FEW,0.00,0.0,WeatherDisplay:10.37,2013-08-20 08:08:00,
2013-08-20 03:13:00,64.7,62.6,29.88,SSW,202,3.5,3.5,93,0.00,CLR,FEW,0.00,0.0,WeatherDisplay:10.37,2013-08-20 08:13:00,
2013-08-20 03:18:00,64.7,62.6,29.88,SSW,202,4.0,4.0,93,0.00,CLR,FEW,0.00,0.0,WeatherDisplay:10.37,2013-08-20 08:18:00,
2013-08-20 03:23:00,64.7,62.6,29.88,SSW,202,3.5,3.5,93,0.00,CLR,FEW,0.00,0.0,WeatherDisplay:10.37,2013-08-20 08:23:00,
2013-08-20 03:29:00,64.7,62.6,29.87,SSW,202,4.0,4.0,93,0.00,CLR,FEW,0.00,0.0,WeatherDisplay:10.37,2013-08-20 08:29:00,
2013-08-20 03:34:00,64.7,62.6,29.87,SSW,202,4.6,4.6,93,0.00,CLR,FEW,0.00,0.0,WeatherDisplay:10.37,2013-08-20 08:34:00,
2013-08-20 03:39:00,64.5,62.4,29.87,SSW,202,5.8,5.8,93,0.00,CLR,FEW,0.00,0.0,WeatherDisplay:10.37,2013-08-20 08:39:00,
2013-08-20 03:44:00,64.5,62.4,29.87,SSW,202,4.0,4.0,93,0.00,CLR,FEW,0.00,0.0,WeatherDisplay:10.37,2013-08-20 08:44:00,
2013-08-20 03:49:00,64.3,62.2,29.87,SSW,202,5.8,5.8,93,0.00,CLR,FEW,0.00,0.0,WeatherDisplay:10.37,2013-08-20 08:49:00,
2013-08-20 03:54:00,64.3,62.2,29.87,SSW,202,6.0,6.0,93,0.00,CLR,FEW,0.00,0.0,WeatherDisplay:10.37,2013-08-20 08:54:00,
2013-08-20 03:59:00,64.3,62.2,29.87,SSW,202,5.0,6.0,93,0.00,CLR,FEW,0.00,0.0,WeatherDisplay:10.37,2013-08-20 08:59:00,
2013-08-20 04:04:00,64.2,62.1,29.87,SSW,198,5.0,7.0,93,0.00,CLR,FEW,0.00,0.0,WeatherDisplay:10.37,2013-08-20 09:04:00,
2013-08-20 04:09:00,64.2,62.1,29.87,SSW,193,6.0,8.0,93,0.00,CLR,FEW,0.00,0.0,WeatherDisplay:10.37,2013-08-20 09:09:00,
2013-08-20 04:14:00,64.0,61.9,29.87,South,186,6.9,6.9,93,0.00,CLR,FEW,0.00,0.0,WeatherDisplay:10.37,2013-08-20 09:14:00,
2013-08-20 04:20:00,64.0,61.9,29.87,South,186,5.8,5.8,93,0.00,CLR,FEW,0.00,0.0,WeatherDisplay:10.37,2013-08-20 09:20:00,
2013-08-20 04:25:00,63.9,61.8,29.87,South,184,5.0,5.0,93,0.00,CLR,FEW,0.00,0.0,WeatherDisplay:10.37,2013-08-20 09:25:00,
2013-08-20 04:30:00,63.9,62.1,29.87,South,181,9.2,9.2,94,0.00,CLR,FEW,0.00,0.0,WeatherDisplay:10.37,2013-08-20 09:30:00,
2013-08-20 04:35:00,63.9,61.8,29.87,South,181,6.9,6.9,93,0.00,CLR,FEW,0.00,0.0,WeatherDisplay:10.37,2013-08-20 09:35:00,
2013-08-20 04:40:00,63.9,61.8,29.87,South,181,6.9,6.9,93,0.00,CLR,FEW,0.00,0.0,WeatherDisplay:10.37,2013-08-20 09:40:00,
2013-08-20 04:45:00,63.7,61.6,29.87,South,184,5.8,5.8,93,0.00,CLR,FEW,0.00,0.0,WeatherDisplay:10.37,2013-08-20 09:45:00,
2013-08-20 04:50:00,63.7,61.6,29.87,South,185,5.8,5.8,93,0.00,CLR,FEW,0.00,0.0,WeatherDisplay:10.37,2013-08-20 09:50:00,
2013-08-20 04:56:00,63.7,61.9,29.87,South,185,5.0,5.0,94,0.00,CLR,FEW,0.00,0.0,WeatherDisplay:10.37,2013-08-20 09:56:00,
2013-08-20 05:01:00,63.7,61.9,29.88,South,185,5.0,5.0,94,0.00,CLR,FEW,0.00,0.0,WeatherDisplay:10.37,2013-08-20 10:01:00,
2013-08-20 05:06:00,63.7,61.9,29.88,South,185,5.0,5.0,94,0.00,CLR,FEW,0.00,0.0,WeatherDisplay:10.37,2013-08-20 10:06:00,
2013-08-20 05:11:00,63.7,61.9,29.88,South,185,6.9,6.9,94,0.00,CLR,FEW,0.00,0.0,WeatherDisplay:10.37,2013-08-20 10:11:00,
2013-08-20 05:16:00,63.7,61.9,29.88,South,185,5.8,5.8,94,0.00,CLR,FEW,0.00,0.0,WeatherDisplay:10.37,2013-08-20 10:16:00,
2013-08-20 05:21:00,63.7,61.9,29.88,South,187,6.0,6.0,94,0.00,CLR,FEW,0.00,0.0,WeatherDisplay:10.37,2013-08-20 10:21:00,
2013-08-20 05:26:00,63.7,61.9,29.88,South,187,5.8,5.8,94,0.00,CLR,FEW,0.00,0.0,WeatherDisplay:10.37,2013-08-20 10:26:00,
2013-08-20 05:31:00,63.5,61.7,29.88,South,187,5.8,5.8,94,0.00,CLR,FEW,0.00,0.0,WeatherDisplay:10.37,2013-08-20 10:31:00,
2013-08-20 05:37:00,63.5,61.7,29.88,South,187,5.0,5.0,94,0.00,CLR,FEW,0.00,0.0,WeatherDisplay:10.37,2013-08-20 10:37:00,
2013-08-20 05:42:00,63.5,61.7,29.88,South,187,4.6,4.6,94,0.00,CLR,FEW,0.00,0.0,WeatherDisplay:10.37,2013-08-20 10:42:00,
2013-08-20 05:47:00,63.5,61.7,29.88,South,187,4.6,4.6,94,0.00,CLR,FEW,0.00,0.0,WeatherDisplay:10.37,2013-08-20 10:47:00,
2013-08-20 05:52:00,63.5,61.7,29.88,South,187,4.6,4.6,94,0.00,CLR,FEW,0.00,0.0,WeatherDisplay:10.37,2013-08-20 10:52:00,
2013-08-20 05:57:00,63.4,61.6,29.88,South,187,5.8,5.8,94,0.00,CLR,FEW,0.00,0.0,WeatherDisplay:10.37,2013-08-20 10:57:00,
2013-08-20 06:02:00,63.4,61.9,29.88,South,187,5.8,5.8,95,0.00,CLR,FEW,0.00,0.0,WeatherDisplay:10.37,2013-08-20 11:02:00,
2013-08-20 06:07:00,63.4,61.6,29.89,South,187,5.8,5.8,94,0.00,CLR,FEW,0.00,0.0,WeatherDisplay:10.37,2013-08-20 11:07:00,
2013-08-20 06:13:00,63.2,61.4,29.88,South,187,5.8,5.8,94,0.00,CLR,FEW,0.00,0.0,WeatherDisplay:10.37,2013-08-20 11:13:00,
2013-08-20 06:18:00,63.2,61.4,29.89,South,187,5.8,5.8,94,0.00,CLR,FEW,0.00,0.0,WeatherDisplay:10.37,2013-08-20 11:18:00,
2013-08-20 06:23:00,63.2,61.4,29.89,South,187,5.8,5.8,94,0.00,CLR,FEW,0.00,0.0,WeatherDisplay:10.37,2013-08-20 11:23:00,
2013-08-20 06:28:00,63.1,61.6,29.89,South,187,5.8,5.8,95,0.00,CLR,FEW,0.00,0.0,WeatherDisplay:10.37,2013-08-20 11:28:00,
2013-08-20 06:33:00,63.1,61.6,29.89,South,187,5.8,5.8,95,0.00,CLR,FEW,0.00,0.0,WeatherDisplay:10.37,2013-08-20 11:33:00,
2013-08-20 06:38:00,63.1,61.6,29.89,South,185,5.8,5.8,95,0.00,CLR,FEW,0.00,0.0,WeatherDisplay:10.37,2013-08-20 11:38:00,
2013-08-20 06:43:00,63.1,61.6,29.89,South,180,6.0,6.0,95,0.00,CLR,FEW,0.00,0.0,WeatherDisplay:10.37,2013-08-20 11:43:00,
2013-08-20 06:48:00,63.1,61.6,29.89,South,180,5.8,5.8,95,0.00,CLR,FEW,0.00,0.0,WeatherDisplay:10.37,2013-08-20 11:48:00,
2013-08-20 06:54:00,63.1,61.6,29.89,South,180,8.1,8.1,95,0.00,CLR,FEW,0.00,0.0,WeatherDisplay:10.37,2013-08-20 11:54:00,
2013-08-20 06:59:00,63.1,61.6,29.90,South,180,6.9,6.9,95,0.00,CLR,FEW,0.00,0.0,WeatherDisplay:10.37,2013-08-20 11:59:00,
2013-08-20 07:04:00,63.1,61.9,29.90,South,177,10.4,10.4,96,0.00,CLR,FEW,0.00,0.0,WeatherDisplay:10.37,2013-08-20 12:04:00,
2013-08-20 07:09:00,63.2,62.0,29.90,South,175,6.9,6.9,96,0.00,CLR,FEW,0.00,0.0,WeatherDisplay:10.37,2013-08-20 12:09:00,
2013-08-20 07:14:00,63.2,62.0,29.90,South,170,9.2,9.2,96,0.00,CLR,FEW,0.00,0.0,WeatherDisplay:10.37,2013-08-20 12:14:00,
2013-08-20 07:19:00,63.4,62.2,29.89,South,171,8.0,8.0,96,0.00,CLR,FEW,0.00,0.0,WeatherDisplay:10.37,2013-08-20 12:19:00,
2013-08-20 07:24:00,63.5,62.3,29.89,South,176,6.0,9.0,96,0.00,CLR,FEW,0.00,0.0,WeatherDisplay:10.37,2013-08-20 12:24:00,
2013-08-20 07:29:00,63.5,62.3,29.90,South,176,8.1,8.1,96,0.00,CLR,FEW,0.00,0.0,WeatherDisplay:10.37,2013-08-20 12:29:00,
2013-08-20 07:34:00,63.7,62.8,29.90,South,175,5.0,9.0,97,0.00,CLR,FEW,0.00,0.0,WeatherDisplay:10.37,2013-08-20 12:34:00,
2013-08-20 07:39:00,63.9,63.0,29.90,South,178,9.2,9.2,97,0.00,CLR,FEW,0.00,0.0,WeatherDisplay:10.37,2013-08-20 12:39:00,
2013-08-20 07:44:00,64.0,63.4,29.90,South,173,7.0,12.0,98,0.00,CLR,FEW,0.00,0.0,WeatherDisplay:10.37,2013-08-20 12:44:00,
2013-08-20 07:49:00,64.2,63.6,29.90,South,180,11.0,11.0,98,0.00,CLR,FEW,0.00,0.0,WeatherDisplay:10.37,2013-08-20 12:49:00,
2013-08-20 07:54:00,64.3,63.7,29.90,South,181,7.0,10.0,98,0.00,CLR,FEW,0.00,0.0,WeatherDisplay:10.37,2013-08-20 12:54:00,
2013-08-20 07:59:00,64.5,63.9,29.90,South,184,7.0,12.0,98,0.00,OVC,FEW,0.00,0.0,WeatherDisplay:10.37,2013-08-20 12:59:00,
2013-08-20 08:05:00,64.7,64.1,29.90,SSW,193,11.5,11.5,98,0.00,OVC,FEW,0.00,0.0,WeatherDisplay:10.37,2013-08-20 13:05:00,
2013-08-20 08:10:00,64.8,64.2,29.90,South,182,10.4,10.4,98,0.00,OVC,FEW,0.00,0.0,WeatherDisplay:10.37,2013-08-20 13:10:00,
2013-08-20 08:15:00,65.0,64.4,29.90,SSW,205,11.0,11.0,98,0.00,OVC,FEW,0.00,0.0,WeatherDisplay:10.37,2013-08-20 13:15:00,
2013-08-20 08:20:00,65.2,64.6,29.90,South,181,9.2,9.2,98,0.00,OVC,FEW,0.00,0.0,WeatherDisplay:10.37,2013-08-20 13:20:00,
2013-08-20 08:25:00,65.5,64.9,29.90,SSW,192,8.0,8.0,98,0.00,OVC,FEW,0.00,0.0,WeatherDisplay:10.37,2013-08-20 13:25:00,
2013-08-20 08:30:00,65.6,65.0,29.90,South,175,10.4,10.4,98,0.00,OVC,FEW,0.00,0.0,WeatherDisplay:10.37,2013-08-20 13:30:00,
2013-08-20 08:35:00,65.8,65.2,29.90,South,189,11.5,11.5,98,0.00,OVC,FEW,0.00,0.0,WeatherDisplay:10.37,2013-08-20 13:35:00,
2013-08-20 08:40:00,66.1,65.5,29.90,South,185,8.1,8.1,98,0.00,OVC,FEW,0.00,0.0,WeatherDisplay:10.37,2013-08-20 13:40:00,
2013-08-20 08:46:00,66.6,66.0,29.90,South,187,5.8,5.8,98,0.00,OVC,FEW,0.00,0.0,WeatherDisplay:10.37,2013-08-20 13:46:00,
2013-08-20 08:51:00,66.9,66.0,29.90,South,173,6.0,6.0,97,0.00,OVC,FEW,0.00,0.0,WeatherDisplay:10.37,2013-08-20 13:51:00,
2013-08-20 08:56:00,67.3,66.1,29.90,SSW,198,11.0,11.0,96,0.00,OVC,FEW,0.00,0.0,WeatherDisplay:10.37,2013-08-20 13:56:00,
2013-08-20 09:01:00,67.6,66.1,29.90,SSW,196,15.0,15.0,95,0.00,OVC,FEW,0.00,0.0,WeatherDisplay:10.37,2013-08-20 14:01:00,
2013-08-20 09:06:00,68.1,65.4,29.89,SSW,202,12.0,12.0,91,0.00,OVC,FEW,0.00,0.0,WeatherDisplay:10.37,2013-08-20 14:06:00,
2013-08-20 09:11:00,68.4,65.4,29.90,SSW,210,13.8,13.8,90,0.00,OVC,FEW,0.00,0.0,WeatherDisplay:10.37,2013-08-20 14:11:00,
2013-08-20 09:16:00,68.8,65.1,29.90,SSW,194,12.7,12.7,88,0.00,OVC,FEW,0.00,0.0,WeatherDisplay:10.37,2013-08-20 14:16:00,
2013-08-20 09:22:00,69.1,64.7,29.89,South,179,11.5,11.5,86,0.00,OVC,FEW,0.00,0.0,WeatherDisplay:10.37,2013-08-20 14:22:00,
2013-08-20 09:27:00,69.6,64.9,29.89,SW,221,11.5,11.5,85,0.00,OVC,FEW,0.00,0.0,WeatherDisplay:10.37,2013-08-20 14:27:00,
2013-08-20 09:32:00,69.9,65.2,29.89,South,187,10.4,10.4,85,0.00,OVC,FEW,0.00,0.0,WeatherDisplay:10.37,2013-08-20 14:32:00,
2013-08-20 09:37:00,70.4,65.3,29.89,WSW,238,10.4,10.4,84,0.00,OVC,FEW,0.00,0.0,WeatherDisplay:10.37,2013-08-20 14:37:00,
2013-08-20 09:42:00,70.8,65.4,29.89,South,174,14.0,14.0,83,0.00,OVC,FEW,0.00,0.0,WeatherDisplay:10.37,2013-08-20 14:42:00,
2013-08-20 09:47:00,71.1,65.3,29.89,WSW,237,13.8,13.8,82,0.00,OVC,FEW,0.00,0.0,WeatherDisplay:10.37,2013-08-20 14:47:00,
2013-08-20 09:52:00,71.5,65.4,29.89,SW,229,10.0,10.0,81,0.00,OVC,FEW,0.00,0.0,WeatherDisplay:10.37,2013-08-20 14:52:00,
2013-08-20 09:57:00,71.8,65.7,29.88,South,185,9.2,9.2,81,0.00,OVC,FEW,0.00,0.0,WeatherDisplay:10.37,2013-08-20 14:57:00,
2013-08-20 10:03:00,72.0,66.2,29.89,South,171,10.4,10.4,82,0.00,OVC,FEW,0.00,0.0,WeatherDisplay:10.37,2013-08-20 15:03:00,
2013-08-20 10:08:00,72.3,66.5,29.89,WSW,248,3.5,3.5,82,0.00,OVC,FEW,0.00,0.0,WeatherDisplay:10.37,2013-08-20 15:08:00,
2013-08-20 10:13:00,72.7,66.2,29.89,SSE,156,11.5,11.5,80,0.00,OVC,FEW,0.00,0.0,WeatherDisplay:10.37,2013-08-20 15:13:00,
2013-08-20 10:18:00,73.0,66.5,29.88,SW,219,16.1,16.1,80,0.00,OVC,FEW,0.00,0.0,WeatherDisplay:10.37,2013-08-20 15:18:00,
2013-08-20 10:23:00,73.3,66.8,29.89,SSW,198,11.5,11.5,80,0.00,OVC,FEW,0.00,0.0,WeatherDisplay:10.37,2013-08-20 15:23:00,
2013-08-20 10:28:00,73.5,66.2,29.88,SSE,167,13.0,13.0,78,0.00,OVC,FEW,0.00,0.0,WeatherDisplay:10.37,2013-08-20 15:28:00,
2013-08-20 10:33:00,73.9,66.6,29.88,South,187,5.0,5.0,78,0.00,OVC,FEW,0.00,0.0,WeatherDisplay:10.37,2013-08-20 15:33:00,
2013-08-20 10:39:00,74.2,66.9,29.88,SSE,158,8.1,8.1,78,0.00,OVC,FEW,0.00,0.0,WeatherDisplay:10.37,2013-08-20 15:39:00,
2013-08-20 10:44:00,74.6,66.9,29.88,South,175,12.7,12.7,77,0.00,OVC,FEW,0.00,0.0,WeatherDisplay:10.37,2013-08-20 15:44:00,
2013-08-20 10:49:00,75.1,67.0,29.88,SSW,211,11.5,11.5,76,0.00,OVC,FEW,0.00,0.0,WeatherDisplay:10.37,2013-08-20 15:49:00,
2013-08-20 10:54:00,75.4,67.7,29.88,SW,216,11.5,11.5,77,0.00,OVC,FEW,0.00,0.0,WeatherDisplay:10.37,2013-08-20 15:54:00,
2013-08-20 10:59:00,75.8,67.7,29.88,SSW,210,11.5,11.5,76,0.00,OVC,FEW,0.00,0.0,WeatherDisplay:10.37,2013-08-20 15:59:00,
2013-08-20 11:04:00,76.1,67.6,29.88,WSW,239,10.4,10.4,75,0.00,OVC,FEW,0.00,0.0,WeatherDisplay:10.37,2013-08-20 16:04:00,
2013-08-20 11:09:00,76.3,67.4,29.88,SW,215,8.0,15.0,74,0.00,OVC,FEW,0.00,0.0,WeatherDisplay:10.37,2013-08-20 16:09:00,
2013-08-20 11:14:00,76.5,67.6,29.88,SW,215,8.0,13.0,74,0.00,OVC,FEW,0.00,0.0,WeatherDisplay:10.37,2013-08-20 16:14:00,
2013-08-20 11:19:00,76.7,67.8,29.87,SSW,206,2.0,10.0,74,0.00,OVC,FEW,0.00,0.0,WeatherDisplay:10.37,2013-08-20 16:19:00,
2013-08-20 11:24:00,77.2,67.8,29.88,SSW,196,5.0,14.0,73,0.00,OVC,FEW,0.00,0.0,WeatherDisplay:10.37,2013-08-20 16:24:00,
2013-08-20 11:29:00,77.4,67.7,29.88,South,189,6.0,20.0,72,0.00,OVC,FEW,0.00,0.0,WeatherDisplay:10.37,2013-08-20 16:29:00,
2013-08-20 11:34:00,77.6,68.3,29.88,SSW,200,9.0,15.0,73,0.00,OVC,FEW,0.00,0.0,WeatherDisplay:10.37,2013-08-20 16:34:00,
2013-08-20 11:39:00,77.7,68.0,29.88,SSW,202,7.0,17.0,72,0.00,OVC,FEW,0.00,0.0,WeatherDisplay:10.37,2013-08-20 16:39:00,
2013-08-20 11:44:00,77.9,68.1,29.87,SSW,199,8.0,15.0,72,0.00,OVC,FEW,0.00,0.0,WeatherDisplay:10.37,2013-08-20 16:44:00,
2013-08-20 11:49:00,78.2,68.4,29.87,SSW,194,3.0,20.0,72,0.00,OVC,FEW,0.00,0.0,WeatherDisplay:10.37,2013-08-20 16:49:00,
2013-08-20 11:54:00,77.9,68.1,29.87,South,184,16.0,16.0,72,0.00,OVC,FEW,0.00,0.0,WeatherDisplay:10.37,2013-08-20 16:54:00,
2013-08-20 12:00:00,78.6,68.0,29.87,South,169,16.1,16.1,70,0.00,OVC,FEW,0.00,0.0,WeatherDisplay:10.37,2013-08-20 17:00:00,
2013-08-20 12:05:00,79.2,69.0,29.87,South,190,12.7,12.7,71,0.00,OVC,FEW,0.00,0.0,WeatherDisplay:10.37,2013-08-20 17:05:00,
2013-08-20 12:10:00,79.6,68.1,29.87,WSW,237,16.1,16.1,68,0.00,OVC,FEW,0.00,0.0,WeatherDisplay:10.37,2013-08-20 17:10:00,
2013-08-20 12:15:00,79.8,69.6,29.87,SW,219,13.8,13.8,71,0.00,OVC,FEW,0.00,0.0,WeatherDisplay:10.37,2013-08-20 17:15:00,
2013-08-20 12:20:00,79.6,68.5,29.87,SSE,159,19.6,19.6,69,0.00,OVC,FEW,0.00,0.0,WeatherDisplay:10.37,2013-08-20 17:20:00,
2013-08-20 12:25:00,79.9,68.4,29.86,SW,228,19.0,19.0,68,0.00,OVC,FEW,0.00,0.0,WeatherDisplay:10.37,2013-08-20 17:25:00,
2013-08-20 12:30:00,80.5,69.0,29.86,SSE,156,11.5,11.5,68,0.00,OVC,FEW,0.00,0.0,WeatherDisplay:10.37,2013-08-20 17:30:00,
2013-08-20 12:35:00,80.9,69.3,29.86,SSW,195,17.0,17.0,68,0.00,OVC,FEW,0.00,0.0,WeatherDisplay:10.37,2013-08-20 17:35:00,
2013-08-20 12:41:00,81.1,69.5,29.86,SSE,163,11.5,11.5,68,0.00,OVC,FEW,0.00,0.0,WeatherDisplay:10.37,2013-08-20 17:41:00,
2013-08-20 12:46:00,81.6,69.1,29.86,SSE,165,17.3,17.3,66,0.00,OVC,FEW,0.00,0.0,WeatherDisplay:10.37,2013-08-20 17:46:00,
2013-08-20 12:51:00,81.8,69.8,29.86,SSW,194,15.0,15.0,67,0.00,OVC,FEW,0.00,0.0,WeatherDisplay:10.37,2013-08-20 17:51:00,
2013-08-20 12:56:00,82.0,69.1,29.85,South,174,12.7,12.7,65,0.00,OVC,FEW,0.00,0.0,WeatherDisplay:10.37,2013-08-20 17:56:00,
2013-08-20 13:01:00,82.0,69.5,29.85,South,179,19.0,19.0,66,0.00,OVC,FEW,0.00,0.0,WeatherDisplay:10.37,2013-08-20 18:01:00,
2013-08-20 13:06:00,82.0,69.1,29.85,SSW,205,18.4,18.4,65,0.00,OVC,FEW,0.00,0.0,WeatherDisplay:10.37,2013-08-20 18:06:00,
2013-08-20 13:11:00,82.0,69.5,29.85,SW,217,13.0,13.0,66,0.00,OVC,FEW,0.00,0.0,WeatherDisplay:10.37,2013-08-20 18:11:00,
2013-08-20 13:17:00,82.4,69.0,29.85,South,188,12.7,12.7,64,0.00,OVC,FEW,0.00,0.0,WeatherDisplay:10.37,2013-08-20 18:17:00,
2013-08-20 13:22:00,82.6,69.2,29.85,WNW,283,17.3,17.3,64,0.00,OVC,FEW,0.00,0.0,WeatherDisplay:10.37,2013-08-20 18:22:00,
2013-08-20 13:27:00,82.2,68.8,29.84,SW,214,15.0,15.0,64,0.00,OVC,FEW,0.00,0.0,WeatherDisplay:10.37,2013-08-20 18:27:00,
2013-08-20 13:32:00,82.6,69.2,29.84,SSW,201,13.8,13.8,64,0.00,OVC,FEW,0.00,0.0,WeatherDisplay:10.37,2013-08-20 18:32:00,
2013-08-20 13:37:00,82.8,69.4,29.84,South,188,17.3,17.3,64,0.00,OVC,FEW,0.00,0.0,WeatherDisplay:10.37,2013-08-20 18:37:00,
2013-08-20 13:42:00,82.8,69.4,29.85,SW,227,24.0,24.0,64,0.00,OVC,FEW,0.00,0.0,WeatherDisplay:10.37,2013-08-20 18:42:00,
2013-08-20 13:47:00,83.0,69.1,29.84,SW,216,21.9,21.9,63,0.00,OVC,FEW,0.00,0.0,WeatherDisplay:10.37,2013-08-20 18:47:00,
2013-08-20 13:52:00,83.2,69.3,29.84,WSW,250,11.5,11.5,63,0.00,OVC,FEW,0.00,0.0,WeatherDisplay:10.37,2013-08-20 18:52:00,
2013-08-20 13:58:00,83.0,70.0,29.84,SSW,192,21.0,21.0,65,0.00,OVC,FEW,0.00,0.0,WeatherDisplay:10.37,2013-08-20 18:58:00,
2013-08-20 14:03:00,83.2,69.8,29.84,SSW,211,13.8,13.8,64,0.00,OVC,FEW,0.00,0.0,WeatherDisplay:10.37,2013-08-20 19:03:00,
2013-08-20 14:08:00,83.2,69.3,29.84,WNW,293,23.0,23.0,63,0.00,OVC,FEW,0.00,0.0,WeatherDisplay:10.37,2013-08-20 19:08:00,
2013-08-20 14:13:00,83.2,70.2,29.84,SW,235,15.0,15.0,65,0.00,OVC,FEW,0.00,0.0,WeatherDisplay:10.37,2013-08-20 19:13:00,
2013-08-20 14:18:00,83.2,70.2,29.83,SW,227,18.4,18.4,65,0.00,OVC,FEW,0.00,0.0,WeatherDisplay:10.37,2013-08-20 19:18:00,
2013-08-20 14:23:00,83.4,69.5,29.83,SSW,203,19.6,19.6,63,0.00,OVC,FEW,0.00,0.0,WeatherDisplay:10.37,2013-08-20 19:23:00,
2013-08-20 14:28:00,83.6,69.2,29.83,SW,222,20.7,20.7,62,0.00,OVC,FEW,0.00,0.0,WeatherDisplay:10.37,2013-08-20 19:28:00,
2013-08-20 14:34:00,83.6,69.2,29.83,South,183,20.0,20.0,62,0.00,OVC,FEW,0.00,0.0,WeatherDisplay:10.37,2013-08-20 19:34:00,
2013-08-20 14:39:00,84.3,69.9,29.83,South,175,19.6,19.6,62,0.00,OVC,FEW,0.00,0.0,WeatherDisplay:10.37,2013-08-20 19:39:00,
2013-08-20 14:44:00,84.3,70.3,29.83,SW,231,20.7,20.7,63,0.00,OVC,FEW,0.00,0.0,WeatherDisplay:10.37,2013-08-20 19:44:00,
2013-08-20 14:49:00,84.5,69.6,29.83,SW,215,13.0,13.0,61,0.00,OVC,FEW,0.00,0.0,WeatherDisplay:10.37,2013-08-20 19:49:00,
2013-08-20 14:54:00,84.3,69.9,29.83,SSW,204,10.4,10.4,62,0.00,OVC,FEW,0.00,0.0,WeatherDisplay:10.37,2013-08-20 19:54:00,
2013-08-20 14:59:00,84.1,69.7,29.82,SW,220,14.0,14.0,62,0.00,OVC,FEW,0.00,0.0,WeatherDisplay:10.37,2013-08-20 19:59:00,
2013-08-20 15:04:00,84.0,70.5,29.82,SW,232,19.6,19.6,64,0.00,OVC,FEW,0.00,0.0,WeatherDisplay:10.37,2013-08-20 20:04:00,
2013-08-20 15:09:00,83.8,69.9,29.82,SW,229,7.0,18.0,63,0.00,OVC,FEW,0.00,0.0,WeatherDisplay:10.37,2013-08-20 20:09:00,
2013-08-20 15:14:00,84.3,69.9,29.82,SW,215,15.0,15.0,62,0.00,OVC,FEW,0.00,0.0,WeatherDisplay:10.37,2013-08-20 20:14:00,
2013-08-20 15:19:00,84.0,69.6,29.82,SSW,206,10.0,22.0,62,0.00,OVC,FEW,0.00,0.0,WeatherDisplay:10.37,2013-08-20 20:19:00,
2013-08-20 15:24:00,83.8,69.4,29.82,SSW,204,18.4,18.4,62,0.00,OVC,FEW,0.00,0.0,WeatherDisplay:10.37,2013-08-20 20:24:00,
2013-08-20 15:30:00,84.1,68.7,29.82,SSW,200,25.3,25.3,60,0.00,OVC,FEW,0.00,0.0,WeatherDisplay:10.37,2013-08-20 20:30:00,
2013-08-20 15:35:00,84.1,69.2,29.82,SSE,160,18.4,18.4,61,0.00,OVC,FEW,0.00,0.0,WeatherDisplay:10.37,2013-08-20 20:35:00,
2013-08-20 15:40:00,84.7,70.2,29.82,SW,235,9.0,9.0,62,0.00,OVC,FEW,0.00,0.0,WeatherDisplay:10.37,2013-08-20 20:40:00,
2013-08-20 15:45:00,84.7,70.2,29.81,SSW,198,18.4,18.4,62,0.00,OVC,FEW,0.00,0.0,WeatherDisplay:10.37,2013-08-20 20:45:00,
2013-08-20 15:50:00,84.7,69.3,29.82,SSW,206,15.0,15.0,60,0.00,OVC,FEW,0.00,0.0,WeatherDisplay:10.37,2013-08-20 20:50:00,
2013-08-20 15:55:00,84.1,69.2,29.81,SW,231,13.8,13.8,61,0.00,OVC,FEW,0.00,0.0,WeatherDisplay:10.37,2013-08-20 20:55:00,
2013-08-20 16:00:00,83.6,70.1,29.81,SSW,204,8.1,8.1,64,0.00,OVC,FEW,0.00,0.0,WeatherDisplay:10.37,2013-08-20 21:00:00,
2013-08-20 16:05:00,84.3,69.4,29.81,West,271,17.3,17.3,61,0.00,OVC,FEW,0.00,0.0,WeatherDisplay:10.37,2013-08-20 21:05:00,
2013-08-20 16:11:00,84.5,69.6,29.81,SSW,202,11.5,11.5,61,0.00,OVC,FEW,0.00,0.0,WeatherDisplay:10.37,2013-08-20 21:11:00,
2013-08-20 16:16:00,84.9,69.0,29.81,South,185,16.1,16.1,59,0.00,OVC,FEW,0.00,0.0,WeatherDisplay:10.37,2013-08-20 21:16:00,
2013-08-20 16:21:00,84.7,70.2,29.81,SW,215,17.3,17.3,62,0.00,OVC,FEW,0.00,0.0,WeatherDisplay:10.37,2013-08-20 21:21:00,
2013-08-20 16:26:00,85.1,69.7,29.81,SSW,203,21.0,21.0,60,0.00,OVC,FEW,0.00,0.0,WeatherDisplay:10.37,2013-08-20 21:26:00,
2013-08-20 16:31:00,85.1,69.2,29.81,SW,221,22.0,22.0,59,0.00,OVC,FEW,0.00,0.0,WeatherDisplay:10.37,2013-08-20 21:31:00,
2013-08-20 16:36:00,84.9,69.0,29.81,SW,234,16.1,16.1,59,0.00,OVC,FEW,0.00,0.0,WeatherDisplay:10.37,2013-08-20 21:36:00,
2013-08-20 16:41:00,85.1,69.2,29.81,South,189,19.6,19.6,59,0.00,OVC,FEW,0.00,0.0,WeatherDisplay:10.37,2013-08-20 21:41:00,
2013-08-20 16:46:00,84.1,69.2,29.81,SW,233,16.1,16.1,61,0.00,OVC,FEW,0.00,0.0,WeatherDisplay:10.37,2013-08-20 21:46:00,
2013-08-20 16:52:00,84.1,70.1,29.80,SSW,212,16.1,16.1,63,0.00,OVC,FEW,0.00,0.0,WeatherDisplay:10.37,2013-08-20 21:52:00,
2013-08-20 16:57:00,84.5,69.6,29.80,SW,227,16.1,16.1,61,0.00,OVC,FEW,0.00,0.0,WeatherDisplay:10.37,2013-08-20 21:57:00,
2013-08-20 17:02:00,84.7,70.2,29.80,SSW,207,15.0,15.0,62,0.00,OVC,FEW,0.00,0.0,WeatherDisplay:10.37,2013-08-20 22:02:00,
2013-08-20 17:07:00,84.3,69.4,29.81,SW,217,17.3,17.3,61,0.00,OVC,FEW,0.00,0.0,WeatherDisplay:10.37,2013-08-20 22:07:00,
2013-08-20 17:12:00,84.0,70.0,29.80,SW,228,12.7,12.7,63,0.00,OVC,FEW,0.00,0.0,WeatherDisplay:10.37,2013-08-20 22:12:00,
2013-08-20 17:17:00,84.0,69.1,29.80,SW,217,20.7,20.7,61,0.00,OVC,FEW,0.00,0.0,WeatherDisplay:10.37,2013-08-20 22:17:00,
2013-08-20 17:22:00,84.1,69.7,29.80,SW,220,9.2,9.2,62,0.00,OVC,FEW,0.00,0.0,WeatherDisplay:10.37,2013-08-20 22:22:00,
2013-08-20 17:28:00,83.8,69.9,29.80,SW,227,9.2,9.2,63,0.00,OVC,FEW,0.00,0.0,WeatherDisplay:10.37,2013-08-20 22:28:00,
2013-08-20 17:33:00,83.6,69.7,29.80,WSW,244,16.0,16.0,63,0.00,OVC,FEW,0.00,0.0,WeatherDisplay:10.37,2013-08-20 22:33:00,
2013-08-20 17:38:00,83.4,69.5,29.80,SSW,202,8.1,8.1,63,0.00,OVC,FEW,0.00,0.0,WeatherDisplay:10.37,2013-08-20 22:38:00,
2013-08-20 17:43:00,83.8,69.4,29.80,SSW,198,17.3,17.3,62,0.00,OVC,FEW,0.00,0.0,WeatherDisplay:10.37,2013-08-20 22:43:00,
2013-08-20 17:48:00,83.8,68.9,29.80,SW,215,11.5,11.5,61,0.00,OVC,FEW,0.00,0.0,WeatherDisplay:10.37,2013-08-20 22:48:00,
2013-08-20 17:53:00,83.8,69.4,29.80,SSW,200,11.5,11.5,62,0.00,OVC,FEW,0.00,0.0,WeatherDisplay:10.37,2013-08-20 22:53:00,
2013-08-20 17:58:00,83.8,69.9,29.80,South,181,9.0,9.0,63,0.00,OVC,FEW,0.00,0.0,WeatherDisplay:10.37,2013-08-20 22:58:00,
2013-08-20 18:03:00,83.8,69.9,29.80,SW,220,11.5,11.5,63,0.00,OVC,FEW,0.00,0.0,WeatherDisplay:10.37,2013-08-20 23:03:00,
2013-08-20 18:08:00,83.6,69.7,29.80,South,172,14.0,14.0,63,0.00,OVC,FEW,0.00,0.0,WeatherDisplay:10.37,2013-08-20 23:08:00,
2013-08-20 18:14:00,83.4,69.5,29.80,SSW,212,12.7,12.7,63,0.00,OVC,FEW,0.00,0.0,WeatherDisplay:10.37,2013-08-20 23:14:00,
2013-08-20 18:19:00,83.2,69.8,29.80,South,190,8.1,8.1,64,0.00,OVC,FEW,0.00,0.0,WeatherDisplay:10.37,2013-08-20 23:19:00,
2013-08-20 18:24:00,82.6,69.6,29.80,SSW,208,14.0,14.0,65,0.00,OVC,FEW,0.00,0.0,WeatherDisplay:10.37,2013-08-20 23:24:00,
2013-08-20 18:29:00,82.6,70.1,29.80,SW,215,13.0,13.0,66,0.00,OVC,FEW,0.00,0.0,WeatherDisplay:10.37,2013-08-20 23:29:00,
2013-08-20 18:34:00,82.6,69.6,29.80,SW,219,10.4,10.4,65,0.00,OVC,FEW,0.00,0.0,WeatherDisplay:10.37,2013-08-20 23:34:00,
2013-08-20 18:39:00,82.2,69.7,29.80,SSW,208,7.0,7.0,66,0.00,OVC,FEW,0.00,0.0,WeatherDisplay:10.37,2013-08-20 23:39:00,
2013-08-20 18:44:00,82.2,70.1,29.80,SSW,212,7.0,13.0,67,0.00,OVC,FEW,0.00,0.0,WeatherDisplay:10.37,2013-08-20 23:44:00,
2013-08-20 18:49:00,81.8,69.8,29.80,SSW,209,6.0,12.0,67,0.00,OVC,FEW,0.00,0.0,WeatherDisplay:10.37,2013-08-20 23:49:00,
2013-08-20 18:54:00,81.6,69.6,29.80,SSW,211,6.0,12.0,67,0.00,OVC,FEW,0.00,0.0,WeatherDisplay:10.37,2013-08-20 23:54:00,
2013-08-20 18:59:00,81.6,69.6,29.80,SW,215,5.0,9.0,67,0.00,CLR,FEW,0.00,0.0,WeatherDisplay:10.37,2013-08-20 23:59:00,
2013-08-20 19:04:00,81.5,69.9,29.80,SW,219,5.0,12.0,68,0.00,CLR,FEW,0.00,0.0,WeatherDisplay:10.37,2013-08-21 00:04:00,
2013-08-20 19:09:00,81.2,69.6,29.80,SW,220,11.5,11.5,68,0.00,CLR,FEW,0.00,0.0,WeatherDisplay:10.37,2013-08-21 00:09:00,
2013-08-20 19:14:00,81.1,70.0,29.80,SW,219,3.0,12.0,69,0.00,CLR,FEW,0.00,0.0,WeatherDisplay:10.37,2013-08-21 00:14:00,
2013-08-20 19:19:00,80.9,69.8,29.80,SSW,208,7.0,12.0,69,0.00,CLR,FEW,0.00,0.0,WeatherDisplay:10.37,2013-08-21 00:19:00,
2013-08-20 19:24:00,80.7,69.6,29.80,SW,221,10.4,10.4,69,0.00,CLR,FEW,0.00,0.0,WeatherDisplay:10.37,2013-08-21 00:24:00,
2013-08-20 19:30:00,80.7,70.0,29.80,SSW,198,9.2,9.2,70,0.00,CLR,FEW,0.00,0.0,WeatherDisplay:10.37,2013-08-21 00:30:00,
2013-08-20 19:35:00,80.3,69.6,29.81,SSW,202,8.0,8.0,70,0.00,CLR,FEW,0.00,0.0,WeatherDisplay:10.37,2013-08-21 00:35:00,
2013-08-20 19:40:00,79.8,69.6,29.81,SSW,196,9.0,9.0,71,0.00,CLR,FEW,0.00,0.0,WeatherDisplay:10.37,2013-08-21 00:40:00,
2013-08-20 19:45:00,79.6,69.8,29.81,South,187,11.5,11.5,72,0.00,CLR,FEW,0.00,0.0,WeatherDisplay:10.37,2013-08-21 00:45:00,
2013-08-20 19:50:00,79.4,69.6,29.81,SSW,208,7.0,7.0,72,0.00,CLR,FEW,0.00,0.0,WeatherDisplay:10.37,2013-08-21 00:50:00,
2013-08-20 19:55:00,79.2,69.8,29.81,SSW,194,9.2,9.2,73,0.00,CLR,FEW,0.00,0.0,WeatherDisplay:10.37,2013-08-21 00:55:00,
2013-08-20 20:00:00,78.8,69.8,29.81,SW,228,9.2,9.2,74,0.00,CLR,FEW,0.00,0.0,WeatherDisplay:10.37,2013-08-21 01:00:00,
2013-08-20 20:06:00,78.6,69.6,29.81,SSW,202,8.1,8.1,74,0.00,CLR,FEW,0.00,0.0,WeatherDisplay:10.37,2013-08-21 01:06:00,
2013-08-20 20:11:00,78.3,69.7,29.81,SSW,192,10.4,10.4,75,0.00,CLR,FEW,0.00,0.0,WeatherDisplay:10.37,2013-08-21 01:11:00,
2013-08-20 20:16:00,78.1,69.5,29.81,SSW,208,8.1,8.1,75,0.00,CLR,FEW,0.00,0.0,WeatherDisplay:10.37,2013-08-21 01:16:00,
2013-08-20 20:21:00,77.7,69.5,29.81,SSW,210,12.7,12.7,76,0.00,CLR,FEW,0.00,0.0,WeatherDisplay:10.37,2013-08-21 01:21:00,
2013-08-20 20:23:00,77.7,69.5,29.81,South,191,10.4,10.4,76,0.00,CLR,FEW,0.00,0.0,WeatherDisplay:10.37,2013-08-21 01:23:00,
2013-08-20 20:28:00,77.6,69.4,29.81,SW,223,9.2,9.2,76,0.00,CLR,FEW,0.00,0.0,WeatherDisplay:10.37,2013-08-21 01:28:00,
2013-08-20 20:33:00,77.6,69.4,29.82,SW,227,11.5,11.5,76,0.00,CLR,FEW,0.00,0.0,WeatherDisplay:10.37,2013-08-21 01:33:00,
2013-08-20 20:38:00,77.4,69.2,29.82,SW,218,9.2,9.2,76,0.00,CLR,FEW,0.00,0.0,WeatherDisplay:10.37,2013-08-21 01:38:00,
2013-08-20 20:43:00,77.2,69.4,29.82,SW,215,11.0,11.0,77,0.00,CLR,FEW,0.00,0.0,WeatherDisplay:10.37,2013-08-21 01:43:00,
2013-08-20 20:48:00,77.0,69.6,29.82,SW,233,11.5,11.5,78,0.00,CLR,FEW,0.00,0.0,WeatherDisplay:10.37,2013-08-21 01:48:00,
2013-08-20 20:53:00,77.0,69.6,29.82,SSW,211,13.0,13.0,78,0.00,CLR,FEW,0.00,0.0,WeatherDisplay:10.37,2013-08-21 01:53:00,
2013-08-20 20:58:00,76.8,69.4,29.82,South,185,8.1,8.1,78,0.00,CLR,FEW,0.00,0.0,WeatherDisplay:10.37,2013-08-21 01:58:00,
2013-08-20 21:04:00,76.7,69.3,29.83,South,184,9.2,9.2,78,0.00,CLR,FEW,0.00,0.0,WeatherDisplay:10.37,2013-08-21 02:04:00,
2013-08-20 21:09:00,76.5,69.5,29.83,South,191,9.2,9.2,79,0.00,CLR,FEW,0.00,0.0,WeatherDisplay:10.37,2013-08-21 02:09:00,
2013-08-20 21:14:00,76.3,69.3,29.83,SSW,200,10.4,10.4,79,0.00,CLR,FEW,0.00,0.0,WeatherDisplay:10.37,2013-08-21 02:14:00,
2013-08-20 21:19:00,76.1,69.5,29.83,SSW,204,10.4,10.4,80,0.00,CLR,FEW,0.00,0.0,WeatherDisplay:10.37,2013-08-21 02:19:00,
2013-08-20 21:24:00,76.0,69.4,29.83,SW,220,13.8,13.8,80,0.00,CLR,FEW,0.00,0.0,WeatherDisplay:10.37,2013-08-21 02:24:00,
2013-08-20 21:29:00,76.0,69.4,29.83,South,191,11.5,11.5,80,0.00,CLR,FEW,0.00,0.0,WeatherDisplay:10.37,2013-08-21 02:29:00,
2013-08-20 21:34:00,76.0,69.7,29.83,SSW,213,6.0,13.0,81,0.00,CLR,FEW,0.00,0.0,WeatherDisplay:10.37,2013-08-21 02:34:00,
2013-08-20 21:39:00,75.8,69.6,29.83,SSW,208,5.0,11.0,81,0.00,CLR,FEW,0.00,0.0,WeatherDisplay:10.37,2013-08-21 02:39:00,
2013-08-20 21:44:00,75.8,69.6,29.83,SSE,160,10.4,10.4,81,0.00,CLR,FEW,0.00,0.0,WeatherDisplay:10.37,2013-08-21 02:44:00,
2013-08-20 21:50:00,75.6,69.4,29.83,SW,219,9.2,9.2,81,0.00,CLR,FEW,0.00,0.0,WeatherDisplay:10.37,2013-08-21 02:50:00,
2013-08-20 21:55:00,75.4,69.2,29.83,South,184,11.5,11.5,81,0.00,CLR,FEW,0.00,0.0,WeatherDisplay:10.37,2013-08-21 02:55:00,
2013-08-20 22:00:00,75.4,69.2,29.83,SSW,209,11.5,11.5,81,0.00,CLR,FEW,0.00,0.0,WeatherDisplay:10.37,2013-08-21 03:00:00,
2013-08-20 22:05:00,75.4,69.2,29.83,SSW,196,11.5,11.5,81,0.00,CLR,FEW,0.00,0.0,WeatherDisplay:10.37,2013-08-21 03:05:00,
2013-08-20 22:10:00,75.4,69.2,29.83,SSW,200,10.4,10.4,81,0.00,CLR,FEW,0.00,0.0,WeatherDisplay:10.37,2013-08-21 03:10:00,
2013-08-20 22:15:00,75.4,69.2,29.83,SSW,197,11.5,11.5,81,0.00,CLR,FEW,0.00,0.0,WeatherDisplay:10.37,2013-08-21 03:15:00,
2013-08-20 22:20:00,75.4,69.2,29.83,SSW,197,12.0,12.0,81,0.00,CLR,FEW,0.00,0.0,WeatherDisplay:10.37,2013-08-21 03:20:00,
2013-08-20 22:26:00,75.3,69.1,29.82,SSW,212,14.0,14.0,81,0.00,CLR,FEW,0.00,0.0,WeatherDisplay:10.37,2013-08-21 03:26:00,
2013-08-20 22:31:00,75.3,69.4,29.82,SW,220,11.5,11.5,82,0.00,CLR,FEW,0.00,0.0,WeatherDisplay:10.37,2013-08-21 03:31:00,
2013-08-20 22:36:00,75.3,69.4,29.83,SSW,193,9.0,9.0,82,0.00,CLR,FEW,0.00,0.0,WeatherDisplay:10.37,2013-08-21 03:36:00,
2013-08-20 22:41:00,75.1,69.2,29.83,SSW,210,12.7,12.7,82,0.00,CLR,FEW,0.00,0.0,WeatherDisplay:10.37,2013-08-21 03:41:00,
2013-08-20 22:46:00,75.1,69.6,29.83,SSW,206,13.8,13.8,83,0.00,CLR,FEW,0.00,0.0,WeatherDisplay:10.37,2013-08-21 03:46:00,
2013-08-20 22:51:00,75.1,69.2,29.83,South,189,17.3,17.3,82,0.00,CLR,FEW,0.00,0.0,WeatherDisplay:10.37,2013-08-21 03:51:00,
2013-08-20 22:56:00,74.9,69.0,29.82,SSW,197,11.5,11.5,82,0.00,CLR,FEW,0.00,0.0,WeatherDisplay:10.37,2013-08-21 03:56:00,
2013-08-20 23:01:00,74.9,69.4,29.82,SSW,192,11.5,11.5,83,0.00,CLR,FEW,0.00,0.0,WeatherDisplay:10.37,2013-08-21 04:01:00,
2013-08-20 23:02:00,74.9,69.4,29.82,South,189,9.2,9.2,83,0.00,CLR,FEW,0.00,0.0,WeatherDisplay:10.37,2013-08-21 04:02:00,
2013-08-20 23:03:00,74.9,69.4,29.82,SW,218,11.5,11.5,83,0.00,CLR,FEW,0.00,0.0,WeatherDisplay:10.37,2013-08-21 04:03:00,
2013-08-20 23:08:00,74.9,69.4,29.82,SW,217,16.1,16.1,83,0.00,CLR,FEW,0.00,0.0,WeatherDisplay:10.37,2013-08-21 04:08:00,
2013-08-20 23:13:00,74.7,69.2,29.82,SW,220,17.3,17.3,83,0.00,CLR,FEW,0.00,0.0,WeatherDisplay:10.37,2013-08-21 04:13:00,
2013-08-20 23:18:00,74.7,69.5,29.82,South,169,13.8,13.8,84,0.00,CLR,FEW,0.00,0.0,WeatherDisplay:10.37,2013-08-21 04:18:00,
2013-08-20 23:24:00,74.6,69.4,29.82,SSW,213,11.5,11.5,84,0.00,CLR,FEW,0.00,0.0,WeatherDisplay:10.37,2013-08-21 04:24:00,
2013-08-20 23:29:00,74.6,69.4,29.82,SW,227,13.8,13.8,84,0.00,CLR,FEW,0.00,0.0,WeatherDisplay:10.37,2013-08-21 04:29:00,
2013-08-20 23:34:00,74.6,69.4,29.82,SSE,165,15.0,15.0,84,0.00,CLR,FEW,0.00,0.0,WeatherDisplay:10.37,2013-08-21 04:34:00,
2013-08-20 23:39:00,74.6,69.4,29.82,SSW,211,12.7,12.7,84,0.00,CLR,FEW,0.00,0.0,WeatherDisplay:10.37,2013-08-21 04:39:00,
2013-08-20 23:44:00,74.4,69.2,29.82,SSW,208,13.0,13.0,84,0.00,CLR,FEW,0.00,0.0,WeatherDisplay:10.37,2013-08-21 04:44:00,
2013-08-20 23:49:00,74.4,69.2,29.82,SSW,200,13.8,13.8,84,0.00,CLR,FEW,0.00,0.0,WeatherDisplay:10.37,2013-08-21 04:49:00,
2013-08-20 23:54:00,74.4,69.2,29.82,SW,218,8.0,16.0,84,0.00,CLR,FEW,0.00,0.0,WeatherDisplay:10.37,2013-08-21 04:54:00,
2013-08-20 23:59:00,74.4,69.2,29.81,SSW,207,8.0,15.0,84,0.00,CLR,FEW,0.00,0.0,WeatherDisplay:10.37,2013-08-21 04:59:00,